Regional Weather Roundup
Issued by NWS

Home | Current Version | Previous Version | Text Only | Print | Product List | Glossary Off
Versions: 1 2 3 4 5 6 7 8 9 10 11 12 13 14 15 16 17 18 19 20 21 22 23 24 25 26 27 28 29 30 31 32 33 34 35 36 37 38 39 40 41 42 43 44 45 46 47 48 49 50

644
ASUS44 KLIX 181905
RWRLA
LOUISIANA WEATHER ROUNDUP
NATIONAL WEATHER SERVICE NEW ORLEANS LA
200 PM CDT FRI APR 18 2014

NOTE: "FAIR" INDICATES FEW OR NO CLOUDS BELOW 12,000 FEET WITH NO
      SIGNIFICANT WEATHER AND/OR OBSTRUCTIONS TO VISIBILITY.
      SKY/WX - SKY CONDITION AND SIGNIFICANT WEATHER.
      TMP - AIR TEMPERATURE.    DP   - DEWPOINT TEMPERATURE.
      RH  - RELATIVE HUMIDITY.  PRES - PRESSURE.
      HX  - HEAT INDEX.         WCI  - WIND CHILL INDEX.

*  THESE STATIONS ARE NOT NWS OR FAA STATIONS AND ARE NOT UNDER
   NWS QUALITY CONTROL.

LAZ040-048-061>063-065-066-069-182000-
SOUTHEAST LOUISIANA

CITY           SKY/WX    TMP DP  RH WIND       PRES   REMARKS
N.O. AUDUBON     N/A     76  59  54 MISG        N/A
N.O. INTL ARPT MOSUNNY   73  60  63 NE18G28   30.06F
N.O. LAKEFRONT MOSUNNY   70  60  70 NE16      30.08F
N.O. DOWNTOWN* FAIR      72  55  56 N9G20     30.07S
SLIDELL        PTSUNNY   70  58  65 N16G25    30.07F
BATON ROUGE    PTSUNNY   79  56  45 NE14G21   30.07F
BOOTHVILLE     CLOUDY    65  60  84 N9G17     30.05S
BELLE CHASSE   PTSUNNY   72  57  59 NE14G22   30.06S
BOGALUSA*        N/A     69  58  67 NE14      30.11F
GALLIANO*      MOCLDY    73  60  63 N18G24    30.05F
NEW ROADS*     FAIR      74  60  61 NW8       30.09S
GONZALES*      MOCLDY    77  60  54 N8        30.05F
HAMMOND*       MOSUNNY   77  55  47 N13G20    30.08F
HOUMA*         MOSUNNY   77  55  47 N16       30.05F
PORT FOURCHON* CLOUDY    70  61  73 N16G22    30.07S

$$

LAZ041-044-053-054-182000-
SOUTHWEST LOUISIANA

CITY           SKY/WX    TMP DP  RH WIND       PRES   REMARKS
LAKE CHARLES   PTSUNNY   75  56  51 NE14      30.11F
LAFAYETTE      MOSUNNY   76  59  55 NE8       30.09F
PATTERSON      MOSUNNY   77  59  53 N14         N/A
SALT POINT       N/A     77  60  55 VRB6      30.06F
NEW IBERIA     MOSUNNY   77  59  53 N9G20     30.09F
CHENAULT AIRPK MOSUNNY   75  57  53 NE8       30.13F

$$

LAZ027-028-182000-
CENTRAL LOUISIANA

CITY           SKY/WX    TMP DP  RH WIND       PRES   REMARKS
FORT POLK      PTSUNNY   72  54  53 N9        30.13F
ALEXANDRIA INT MOSUNNY   73  59  61 NE10      30.14F
ALEXANDRIA     PTSUNNY   72  58  61 NW8       30.15F

$$

LAZ001-002-182000-
NORTHWEST LOUISIANA

CITY           SKY/WX    TMP DP  RH WIND       PRES   REMARKS
SHREVEPORT     PTSUNNY   71  51  49 NE5       30.17F
BARKSDALE AFB  PTSUNNY   73  52  47 VRB3      30.18F
DTN SHREVEPORT CLOUDY    71  53  52 N7        30.18F

$$

LAZ014-016-182000-
NORTHEAST LOUISIANA

CITY           SKY/WX    TMP DP  RH WIND       PRES   REMARKS
MONROE         MOSUNNY   73  57  57 N16       30.18F
TALLULAH       NOT AVBL

$$




USA.gov is the U.S. government's official web portal to all federal, state and local government web resources and services.